Frenchville, ME

10:31 PM EDT on May 26, 2017 (GMT -0400)
Northern Aroostook Regional

Weather History for KFVE - November, 2010

Change the Weather History Date:

Wednesday, November 10, 2010

  Actual Average Record
Temperature  
Mean Temperature 35 °F 33 °F  
Max Temperature 44 °F 39 °F 54 °F (2011)
Min Temperature 25 °F 27 °F 12 °F (2004)
Degree Days  
Heating Degree Days 30    
Month to date heating degree days 297  
Since 1 July heating degree days 1425  
Cooling Degree Days 0    
Month to date cooling degree days 0  
Year to date cooling degree days 268  
Moisture  
Dew Point 25 °F    
Average Humidity 74    
Maximum Humidity 96    
Minimum Humidity 47    
Precipitation  
Precipitation 0.00 in 0.09 in 0.49 in (2011)
Month to date precipitation 1.51 0.92  
Year to date precipitation 31.75 29.04  
Sea Level Pressure  
Sea Level Pressure 30.34 in    
Wind  
Wind Speed 11 mph (North)    
Max Wind Speed 18 mph    
Max Gust Speed 24 mph    
Visibility 10 miles    
Events      
T = Trace of Precipitation, MM = Missing Value Source: NWS Daily Summary

Daily Weather History Graph

Daily Weather History Graph

Search for Another Location

Airport or City:

Trip Planner

Search our weather history database for the weather conditions in past years. The results will help you decide how hot, cold, wet, or windy it might be!

Date:

Astronomy

Nov. 10, 2010 Rise Set
Actual Time 6:29 AM EST 4:03 PM EST
Civil Twilight 5:57 AM EST 4:36 PM EST
Nautical Twilight 5:20 AM EST 5:13 PM EST
Astronomical Twilight 4:44 AM EST 5:49 PM EST
Moon 10:58 AM EST (11/10) 7:55 PM EST (11/10)
Length of Visible Light 10h 39m
Length of Day
9h 33m
Waxing Crescent, 22% of the Moon is Illuminated
Nov 10
Waxing Crescent
Nov 13
First Quarter
Nov 21
Full
Nov 28
Last Quarter
Dec 5
New

Hourly Weather History & Observations

Time (EST) Temp. Windchill Dew Point Humidity Pressure Visibility Wind Dir Wind Speed Gust Speed Precip Events Conditions
12:53 AM 30.0 °F 21.1 °F 27.0 °F 88% 30.22 in 9.0 mi North 10.4 mph - N/A   Clear
1:53 AM 30.0 °F 20.5 °F 27.0 °F 88% 30.23 in 10.0 mi North 11.5 mph - N/A   Clear
2:53 AM 28.9 °F 20.4 °F 28.0 °F 96% 30.24 in 9.0 mi North 9.2 mph - N/A   Clear
3:53 AM 28.9 °F 19.2 °F 27.0 °F 92% 30.26 in 10.0 mi NNW 11.5 mph - N/A   Clear
4:53 AM 28.0 °F 18.1 °F 27.0 °F 96% 30.27 in 10.0 mi North 11.5 mph - N/A   Clear
5:53 AM 28.0 °F 17.5 °F 27.0 °F 96% 30.29 in 10.0 mi North 12.7 mph - N/A   Clear
6:53 AM 28.9 °F 19.2 °F 27.0 °F 92% 30.32 in 9.0 mi North 11.5 mph - N/A   Clear
7:53 AM 32.0 °F 24.2 °F 28.0 °F 85% 30.34 in 9.0 mi North 9.2 mph - N/A   Clear
8:53 AM 34.0 °F 25.5 °F 27.0 °F 75% 30.34 in 10.0 mi North 11.5 mph 17.3 mph N/A   Clear
9:53 AM 37.0 °F 28.5 °F 26.1 °F 65% 30.33 in 10.0 mi North 13.8 mph 21.9 mph N/A   Clear
10:53 AM 39.9 °F 31.8 °F 25.0 °F 55% 30.32 in 10.0 mi NNE 15.0 mph 18.4 mph N/A   Clear
11:53 AM 42.1 °F 34.2 °F 24.1 °F 49% 30.31 in 10.0 mi North 16.1 mph 20.7 mph N/A   Clear
12:53 PM 43.0 °F 36.8 °F 24.1 °F 47% 30.32 in 10.0 mi North 11.5 mph 20.7 mph N/A   Clear
1:53 PM 43.0 °F 36.4 °F 25.0 °F 49% 30.32 in 10.0 mi North 12.7 mph 20.7 mph N/A   Clear
2:53 PM 42.1 °F 35.2 °F 24.1 °F 49% 30.32 in 10.0 mi North 12.7 mph 19.6 mph N/A   Clear
3:53 PM 39.0 °F 31.8 °F 24.1 °F 55% 30.33 in 10.0 mi North 11.5 mph - N/A   Clear
4:53 PM 36.0 °F 27.5 °F 25.0 °F 64% 30.37 in 10.0 mi North 12.7 mph - N/A   Clear
5:53 PM 34.0 °F 25.5 °F 24.1 °F 67% 30.40 in 10.0 mi North 11.5 mph - N/A   Clear
6:53 PM 30.9 °F 21.7 °F 23.0 °F 72% 30.41 in 10.0 mi North 11.5 mph - N/A   Clear
7:53 PM 30.0 °F 21.7 °F 23.0 °F 75% 30.43 in 10.0 mi North 9.2 mph - N/A   Clear
8:53 PM 28.9 °F 21.1 °F 23.0 °F 78% 30.44 in 10.0 mi North 8.1 mph - N/A   Clear
9:53 PM 27.0 °F 18.7 °F 21.9 °F 81% 30.46 in 10.0 mi North 8.1 mph - N/A   Clear
10:53 PM 27.0 °F 18.0 °F 21.9 °F 81% 30.47 in 10.0 mi North 9.2 mph - N/A   Clear
11:53 PM 25.0 °F 16.3 °F 21.0 °F 85% 30.48 in 10.0 mi NNW 8.1 mph - N/A   Clear